Location: �clusier
(49.9361°N, 2.7869°E)
Time: 22:34:39
(UTC+00:00)

Cosmos 1378 Rocket - Pass Details

Date: 16 June 2021
Orbit: 601 x 627 km, 82.5° (Epoch: 02 August)

Event Time Altitude Azimuth Distance (km) Brightness Sun altitude
Rises 20:34:45 0° 195° (SSW) 2,854 6.7 -4.9°
Reaches altitude 10° 20:36:57 10° 197° (SSW) 1,959 5.8 -5.2°
Maximum altitude 20:41:17 70° 281° (WNW) 658 3.9 -5.6°
Drops below altitude 10° 20:45:41 10° 6° (N) 1,992 6.8 -6.1°
Sets 20:47:56 0° 9° (N) 2,907 7.6 -6.4°
